Location: Newark
(34.0000°S, 64.0000°W)
Time: 07:02:50
(UTC+00:00)

N. Korean satellite - Visible Passes

Search period start: 04 March 2021 00:00
Search period end: 14 March 2021 00:00
Orbit: 451 x 502 km, 97.2° (Epoch: 03 March)

Date Brightness Start Highest point End Pass type
(mag) Time Alt. Az. Time Alt. Az. Time Alt. Az.
04 Mar 8.5 08:28:43 10° NE 08:32:04 33° ESE 08:35:28 10° S visible
05 Mar 9.8 08:03:18 10° ENE 08:05:31 15° ESE 08:07:46 10° SSE visible
05 Mar 7.6 09:35:20 10° NNW 09:38:32 27° W 09:41:46 10° SW visible
06 Mar 6.6 09:08:02 10° N 09:11:44 66° W 09:15:28 10° SSW visible
07 Mar 7.6 08:41:24 10° NNE 08:45:00 50° ESE 08:48:39 10° S visible
08 Mar 9.3 08:15:28 10° ENE 08:18:23 22° ESE 08:21:20 10° SSE visible
09 Mar 10.3 07:51:19 10° ESE 07:51:51 10° ESE 07:52:24 10° ESE visible
09 Mar 7.0 09:21:10 10° N 09:24:42 42° W 09:28:16 10° SSW visible
10 Mar 6.8 08:54:12 10° NNE 08:57:54 78° ESE 09:01:39 10° S visible
11 Mar 8.5 08:27:52 10° NE 08:31:12 32° ESE 08:34:34 10° S visible
12 Mar 9.8 08:02:26 10° ENE 08:04:36 15° ESE 08:06:47 10° SE visible
12 Mar 7.6 09:34:23 10° NNW 09:37:37 27° W 09:40:51 10° SW visible
13 Mar 6.5 09:07:04 10° N 09:10:45 67° W 09:14:28 10° SSW visible
